Weather History for CWEK - November, 2012

Change the Weather History Date:

Sunday, November 18, 2012

  Actual Average Record
Temperature  
Mean Temperature 42 °F -  
Max Temperature 45 °F - - ()
Min Temperature 39 °F - - ()
Degree Days  
Heating Degree Days 23    
Moisture  
Dew Point 39 °F    
Average Humidity 84    
Maximum Humidity 91    
Minimum Humidity 74    
Precipitation  
Precipitation 0.08 in - - ()
Sea Level Pressure  
Sea Level Pressure 29.18 in    
Wind  
Wind Speed 21 mph ()    
Max Wind Speed 37 mph    
Max Gust Speed 39 mph    
T = Trace of Precipitation, MM = Missing Value Source: Averaged Metar Reports

Daily Weather History Graph

Daily Weather History Graph

Search for Another Location

Airport or City:

Trip Planner

Search our weather history database for the weather conditions in past years. The results will help you decide how hot, cold, wet, or windy it might be!

Date:

Astronomy

Nov. 18, 2012 Rise Set
Actual Time 8:20 AM PST 4:35 PM PST
Civil Twilight 7:38 AM PST 5:16 PM PST
Nautical Twilight 6:54 AM PST 6:01 PM PST
Astronomical Twilight 6:11 AM PST 6:43 PM PST
Moon 12:39 PM PST (11/18) 10:18 PM PST (11/18)
Length of Visible Light 9h 37m
Length of Day
8h 15m
Waxing Crescent, 31% of the Moon is Illuminated
Nov 18
Waxing Crescent
Nov 20
First Quarter
Nov 28
Full
Dec 6
Last Quarter
Dec 13
New

Hourly Weather History & Observations

Time (PST) Temp. Windchill Dew Point Humidity Pressure Visibility Wind Dir Wind Speed Gust Speed Precip Events Conditions
12:00 AM 43.3 °F 34.0 °F 39.6 °F 87% 29.12 in - South 24.2 mph - N/A   Unknown
1:00 AM 44.2 °F 36.4 °F 40.6 °F 87% 29.13 in - SSE 18.4 mph - N/A   Unknown
2:00 AM 43.2 °F 34.5 °F 39.4 °F 86% 29.13 in - SE 20.7 mph - N/A   Unknown
3:00 AM 43.5 °F 34.3 °F 41.2 °F 91% 29.14 in - SSE 24.2 mph - 0.05 in   Unknown
4:00 AM 44 °F - 40 °F 80% 29.17 in - South 17.3 mph - -  
4:00 AM 43.9 °F 36.2 °F 39.9 °F 86% 29.17 in - South 17.3 mph - 0.02 in   Unknown
5:00 AM 45.0 °F 37.1 °F 40.8 °F 85% 29.20 in - South 19.6 mph - N/A   Unknown
6:00 AM 45.1 °F 36.9 °F 40.1 °F 82% 29.22 in - South 21.9 mph - 0.01 in   Unknown
7:00 AM 43.9 °F 34.5 °F 40.8 °F 89% 29.22 in - South 25.3 mph 35.7 mph 0.02 in   Unknown
8:00 AM 43.7 °F 33.9 °F 40.1 °F 87% 29.25 in - SSE 27.6 mph - 0.03 in   Unknown
9:00 AM 43.2 °F 34.0 °F 38.1 °F 82% 29.27 in - SSE 23.0 mph - N/A   Unknown
10:00 AM 42 °F - 37 °F 76% 29.29 in - SE 23.0 mph - -  
10:00 AM 41.9 °F 32.3 °F 37.0 °F 83% 29.29 in - SE 23.0 mph 31.1 mph N/A   Unknown
11:00 AM 43.2 °F 35.6 °F 38.3 °F 83% 29.29 in - SSE 16.1 mph - N/A   Unknown
12:00 PM 42.8 °F 35.8 °F 39.4 °F 88% 29.28 in - East 13.8 mph - N/A   Unknown
1:00 PM 42.8 °F 34.3 °F 39.2 °F 87% 29.26 in - ENE 19.6 mph - N/A   Unknown
2:00 PM 42.8 °F 33.3 °F 39.7 °F 89% 29.24 in - ENE 24.2 mph - N/A   Unknown
3:00 PM 42.8 °F 32.9 °F 39.6 °F 88% 29.22 in - ENE 26.5 mph - N/A   Unknown
4:00 PM 43 °F - 40 °F 83% 29.19 in - ENE 28.8 mph - -  
4:00 PM 42.8 °F 32.5 °F 39.6 °F 88% 29.19 in - ENE 28.8 mph - N/A   Unknown
5:00 PM 42.8 °F 31.9 °F 39.2 °F 87% 29.16 in - NE 32.2 mph - N/A   Unknown
6:00 PM 43.2 °F 32.3 °F 39.2 °F 86% 29.10 in - NE 33.4 mph - N/A   Unknown
7:00 PM 43.2 °F 31.8 °F 38.3 °F 83% 29.07 in - NE 36.8 mph - N/A   Unknown
9:00 PM 44.1 °F 33.5 °F 38.5 °F 81% 29.06 in - NE 33.4 mph 39.1 mph N/A   Unknown
10:00 PM 44 °F - 38 °F 74% 29.04 in - NE 26.5 mph - -  
10:00 PM 43.9 °F 34.3 °F 38.5 °F 81% 29.04 in - NE 26.5 mph 33.4 mph 0.05 in   Unknown
11:00 PM 44.6 °F 34.6 °F 37.8 °F 77% 29.03 in - ENE 31.1 mph 39.1 mph 0.01 in   Unknown